Location: Austin
(30.3000°N, 97.7500°W)
Time: 21:41:34
(UTC-06:00)

Cosmos 841 Rocket - Pass Details

Date: 03 December 2025
Orbit: 742 x 768 km, 74.0° (Epoch: 07 December)

Event Time Altitude Azimuth Distance (km) Brightness Sun altitude
Rises 05:52:07 0° 189° (S) 3,192 6.8 -16.9°
Reaches altitude 10° 05:54:28 10° 187° (S) 2,275 6.1 -16.4°
Maximum altitude 05:59:36 70° 104° (ESE) 809 3.8 -15.3°
Drops below altitude 10° 06:04:47 10° 21° (NNE) 2,302 6.0 -14.3°
Sets 06:07:11 0° 19° (NNE) 3,234 6.8 -13.8°
